Location: Rio Negrinho
(26.2394°S, 49.4999°W)
Time: 21:06:19
(UTC+00:00)

H-2A R/B - Visible Passes

Search period start: 29 September 2020 00:00
Search period end: 09 October 2020 00:00
Orbit: 500 x 542 km, 97.3° (Epoch: 17 June)

Date Brightness Start Highest point End Pass type
(mag) Time Alt. Az. Time Alt. Az. Time Alt. Az.
29 Sep 5.9 07:37:14 10° ENE 07:39:44 17° ESE 07:42:15 10° SSE visible
30 Sep 6.4 07:25:18 10° E 07:26:32 11° ESE 07:27:46 10° SE visible
01 Oct 6.4 21:59:20 10° SW 22:00:50 12° WSW 22:02:19 10° W visible
02 Oct 2.7 08:29:54 10° N 08:33:40 77° W 08:37:32 10° SSW visible
02 Oct 6.0 21:44:58 10° SSW 21:47:38 18° WSW 21:50:17 10° WNW visible
03 Oct 3.2 08:16:38 10° NNE 08:20:23 66° ESE 08:24:14 10° S visible
04 Oct 4.2 08:03:32 10° NNE 08:07:06 41° ESE 08:10:47 10° S visible
05 Oct 5.2 07:50:38 10° NE 07:53:52 27° ESE 07:57:10 10° SSE visible
06 Oct 5.9 07:37:59 10° ENE 07:40:38 18° ESE 07:43:21 10° SSE visible
07 Oct 6.4 07:25:51 10° E 07:27:27 12° ESE 07:29:02 10° SE visible
08 Oct 6.6 22:00:36 10° SW 22:01:45 11° WSW 22:02:53 10° W visible
